Location: Barcelona
(41.3830°N, 2.1830°E)
Time: 00:30:40
(UTC+02:00)

ISS - Pass Details

Date: 15 July 2019
Orbit: 409 x 418 km, 51.6° (Epoch: 22 July)

Event Time Altitude Azimuth Distance (km) Brightness Sun altitude
Enters shadow 23:50:30 - 237° (WSW) 2,347 0.0 -20.6°
Exits shadow 23:57:51 23° 49° (NE) 929 -1.9 -21.3°
Drops below altitude 10° 23:59:15 10° 52° (NE) 1,485 -0.9 -21.5°
Sets 00:01:21 0° 54° (NE) 2,348 0.1 -21.7°
